User: anonymous   Login
Location: NJAA Observatory
(40.6819°N, 74.8979°W)
Time: 14:45:05
(UTC-05:00)
Language:

Cosmos 1633 - Orbit

View from above orbital plane
View from above orbital plane
View from above satellite
View from above satellite

Ground track
Ground track

The orbit data is extracted from the following two-line orbital elements,

1 15592U 85020A   18050.51941086  .00001364  00000-0  46612-4 0  9992
2 15592  82.5356  71.3590 0014158  28.9827 331.2196 15.29282078802080
Epoch (UTC): 19 February 2018 12:27:57
Eccentricity: 0.0014158
inclination: 82.5356°
perigee height: 468 km
apogee height: 487 km
right ascension of ascending node: 71.3590°
argument of perigee: 28.9827°
revolutions per day: 15.29282078
mean anomaly at epoch: 331.2196°
orbit number at epoch: 80208

The dashed part of the orbit path shows where the satellite is in the earth's shadow,  

DLR